Location: Hac?musa Deresi
(39.1694°N, 32.2508°E)
Time: 23:06:20
(UTC+00:00)

Cosmos 1943 - Pass Details

Date: 22 April 2026
Orbit: 832 x 848 km, 71.0° (Epoch: 9 May)

Event Time Altitude Azimuth Distance (km) Brightness Sun altitude
Exits shadow 18:41:46 45° 160° (SSE) 1,135 3.4 -22.4°
Maximum altitude 18:43:11 59° 108° (ESE) 972 3.2 -22.6°
Drops below altitude 10° 18:48:45 10° 30° (NNE) 2,472 5.7 -23.5°
Sets 18:51:14 0° 27° (NNE) 3,409 6.5 -23.8°
